Location: Boiro
(42.6475°N, 8.8834°W)
Time: 02:25:36
(UTC+01:00)

Explorer 7 - Pass Details

Date: 30 November 2021
Orbit: 483 x 674 km, 50.3° (Epoch: 23 January)

Event Time Altitude Azimuth Distance (km) Brightness Sun altitude
Rises 10:56:38 0° 280° (W) 2,696 9.9 17.2°
Reaches altitude 10° 10:59:09 10° 292° (WNW) 1,771 9.0 17.5°
Maximum altitude 11:02:37 27° 352° (N) 1,003 7.8 17.8°
Drops below altitude 10° 11:05:56 10° 52° (NE) 1,700 9.3 18.2°
Sets 11:08:19 0° 65° (ENE) 2,566 10.3 18.4°
